sat.trackr.live / text

‹ back to catalog

STARLINK-30088

NORAD 57462 · 2023-107F

PAYLOAD ACTIVE UNKNOWN

§ Identity

Operator
Country
US
Launch date
2023-07-28
Launch site
AFETR
Launch vehicle
Mass (kg)
RCS (m²)

Purposes: comms

External: N2YO · Heavens-Above · Gunter

§ Orbital elements

Epoch: 2026-09-20T20:46:16.995072Z

Period
94.26 min
Inclination
43.0048°
Eccentricity
0.0001560
Mean motion
15.27620214 rev/d
Perigee alt
481.9 km
Apogee alt
484.0 km
Semi-major
6,861.1 km
B*
-2.3431e-4
RAAN
314.1178°
Arg perigee
271.9856°
Mean anomaly
88.0817°
Rev number
17,499

§ Raw data

STARLINK-300881 57462U 23107F   26263.86547448 -.00006712  00000+0 -23431-3 0  99952 57462  43.0048 314.1178 0001560 271.9856  88.0817 15.27620214174992

JSON: /api/v1/satellites/57462 · /tle

For live sub-satellite position, see the globe view (requires WebGL).

§ Visibility from observer

Set your observer location to see the next 7 days of passes ≥ 10°. The values pass through the URL so the page stays shareable.

No JS? Fill the form by hand. The geolocation button needs JavaScript.